Regional Weather Roundup
Issued by NWS Grand Forks, ND

Current Version | Previous Version | Text Only | Print | Product List | Glossary On
Versions: 1 2 3 4 5 6 7 8 9 10 11 12 13 14 15 16 17 18 19 20 21 22 23 24 25 26 27 28 29 30 31 32 33 34 35 36 37 38 39 40 41 42 43 44 45 46 47 48 49 50
000
ASUS43 KFGF 292331
RWRFGF
PRAIRIE TO PINES  WEATHER ROUNDUP
NATIONAL WEATHER SERVICE EASTERN NORTH DAKOTA/GRAND FORKS ND
600 PM CDT FRI APR 29 2016

 **SATELLITE DATA USED TO AUGMENT SKY COVER AT AUTOMATED STATIONS**
 *****  WEATHER ACROSS EASTERN NORTH DAKOTA  *****

CITY           SKY/WX    TMP DP  RH WIND       PRES   REMARKS
GRAND FORKS    MOSUNNY   63  30  28 NE16      30.14S
GRAND FRKS AFB SUNNY     62  29  28 NE15G22   30.15R
DEVILS LAKE    SUNNY     60  29  30 E15G21    30.16S
FARGO          SUNNY     65  31  28 VRB5      30.10R
WAHPETON ARPT  PTCLDY    61  30  31 CALM      30.11S
$$

 ***** WEATHER ACROSS CENTRAL AND WESTERN NORTH DAKOTA  *****

CITY           SKY/WX    TMP DP  RH WIND       PRES   REMARKS
BISMARCK       MOSUNNY   62  33  33 E17       30.09F
MINOT          SUNNY     65  22  19 E17G23    30.14R
JAMESTOWN      PTSUNNY   62  31  31 E12       30.11F
MINOT AFB      SUNNY     62  24  23 SE16G23   30.13R
GARRISON         N/A     61  28  28 E15       30.12R
WILLISTON      CLOUDY    61  26  26 SE14      30.12R
DICKINSON      CLOUDY    55  26  32 E14       30.06F
HETTINGER      MOSUNNY   55  28  35 E15G21    30.07F
$$

 *****  OTHER AIRPORT OBSERVATIONS IN OUR AREA  *****

CITY           SKY/WX    TMP DP  RH WIND       PRES   REMARKS
WALHALLA       FAIR      61  30  31 NE13      30.18R
GRAFTON AIRPOR FAIR      63  30  29 E9G15     30.18R
VALLEY CITY AR FAIR      59  32  36 E12G20    30.13F
CANDO          FAIR      61  27  27 E15       30.19S
CAVALIER APRT  FAIR      61  30  31 NE12      30.17R
GWINNER        MOCLDY    61  36  39 E8        30.10F
SHEYENNE NWR     N/A     63  32  31 E7        29.95S
ROLLA          FAIR      59  21  23 E14       30.19R
 ***** THE ABOVE OBSERVATIONS ARE NON NWS ARE NOT QUALITY
       CONTROLLED AND MAY MIS-REPORT RAIN FOR SNOW...
$$

  *****  WEATHER ACROSS NORTHERN MINNESOTA  *****

CITY           SKY/WX    TMP DP  RH WIND       PRES   REMARKS
FLAG ISLAND    SUNNY     54  30  40 N16       30.18S
WARROAD        SUNNY     54  34  47 NE8       30.20S
ROSEAU         SUNNY     57  34  41 E15       30.20R
HALLOCK        SUNNY     63  21  20 NE12G17   30.16R
THF RVR FALLS  SUNNY     61  30  31 NE13      30.16S
BAUDETTE       SUNNY     57  31  37 N15       30.16S
WASKISH        SUNNY     57  30  35 NE12G17   30.16R
CROOKSTON      SUNNY     63  30  29 E13       30.15R
STEPHEN NDAWN    N/A     63  32  31 E13         N/A
GREENBUSH NDAW   N/A     59  32  36 E12         N/A
$$
  *****  WEATHER ACROSS CENTRAL AND WEST MINNESOTA  *****

CITY           SKY/WX    TMP DP  RH WIND       PRES   REMARKS
FOSSTON        SUNNY     63  34  34 NE9G18    30.15R
BEMIDJI        MOSUNNY   60  32  34 NE6       30.13R
PARK RAPIDS    SUNNY     61  29  29 MISG      30.11R
ELBOW LAKE     CLOUDY    58  35  42 CALM      30.11F
WADENA         MOSUNNY   59  32  36 SE7       30.10S
DETROIT LAKES  MOSUNNY   61  32  33 E6        30.12R
MOORHEAD       PTSUNNY   64  32  29 NE7       30.10S
FERGUS FALLS   PTSUNNY   61  34  36 CALM      30.08S
MORRIS MN      MOSUNNY   57  39  51 CALM      30.11S
STAPLES        SUNNY     61  27  27 E7        30.12R
$$
  *****  WEATHER ELSEWHERE ACROSS MINNESOTA  *****

CITY           SKY/WX    TMP DP  RH WIND       PRES   REMARKS
DULUTH         MOSUNNY   49  28  44 E16       30.16R
INTRNTL FALLS  SUNNY     57  31  37 NE10      30.18R
ELY            CLOUDY    48  30  49 NE12      30.19S
CLOQUET        SUNNY     50  27  40 E9G18     30.16S
WHEATON        CLOUDY    61  39  44 SE10      30.13S
BRAINERD       SUNNY     59  29  31 NE7       30.12R
HIBBING        SUNNY     55  30  38 NE10      30.14S
ALEXANDRIA     PTSUNNY   57  33  40 SE8       30.12R
SAINT CLOUD    SUNNY     59  32  36 VRB6      30.11S
MINNEAPOLIS    MOSUNNY   60  34  37 VRB3      30.10F
$$

  *****  WEATHER ACROSS SOUTH DAKOTA  *****

CITY           SKY/WX    TMP DP  RH WIND       PRES   REMARKS
SIOUX FALLS    CLOUDY    50  39  66 E12       30.07F
BROOKINGS      CLOUDY    49  39  68 E8        30.09F
WATERTOWN      CLOUDY    51  38  60 E7        30.10F
HURON          CLOUDY    50  38  63 E14       30.08F
SISSETON         N/A     58  37  45 S8        30.10S
ABERDEEN       CLOUDY    57  38  48 SE15      30.09F
MITCHELL       CLOUDY    50  40  68 E13       30.07S
PIERRE         CLOUDY    50  38  63 SE13      30.05F
MOBRIDGE       PTSUNNY   58  38  47 SE13      30.05S
RAPID CITY     CLOUDY    45  34  65 E12       30.04S
$$

  *****  SOME WEATHER IN NEARBY STATES *****

CITY           SKY/WX    TMP DP  RH WIND       PRES   REMARKS
GLASGOW MT     SUNNY     58  31  35 E17G23    30.05R
GREAT FALLS MT CLOUDY    51  30  44 N9        29.92S
CHEYENNE WY    SNOW      32  31  96 CALM      29.91F VSB 1/2
SCOTTSBLUFF NE LGT RAIN  38  35  89 NE8       29.96S FOG
OMAHA NE       CLOUDY    49  43  80 E10       30.00F
DES MOINES IA  CLOUDY    51  40  65 NE13      30.05F
DAVENPORT IA   CLOUDY    50  42  74 E9        30.09F
CHICAGO IL     PTSUNNY   47  39  74 NE10      30.11R
EAU CLAIRE WI  SUNNY     57  38  48 SE9       30.11R
LA CROSSE WI   CLOUDY    53  38  56 E6        30.12R
$$

  *****  SOME NATIONAL WEATHER *****

CITY           SKY/WX    TMP DP  RH WIND       PRES   REMARKS
LA GUARDIA NY  CLOUDY    55  28  35 VRB7      30.08S
RALEIGH NC     CLOUDY    74  59  59 SE8       29.94S
ATLANTA GA     CLOUDY    83  51  33 S7        29.95S
NEW ORLEANS LA CLOUDY    83  71  67 S13       29.84S
OKLAHOMA CITY  CLOUDY    64  63  96 NW14      29.56R FOG
ALBUQUERQUE NM LGT RAIN  52  36  54 N14G26    29.79S
SALT LAKE CITY PTSUNNY   57  35  43 NW9       29.82F
LOS ANGELES CA PTSUNNY   63  53  70 W17       29.97F
BOISE ID       MOSUNNY   63  36  36 NW22G28   29.84F
SEATTLE WA     PTSUNNY   58  44  60 SE6       30.16R
$$

*** WEATHER ACROSS MANITOBA...SASKATCHEWAN AND ONTARIO ***
                ***ONTARIO***

CITY           SKY/WX    TMP DP  RH WIND       PRES   REMARKS
GERALDTON      CLOUDY    41  32  70 N6        30.24R
THUNDER BAY    PTSUNNY   50  32  50 E8        30.20R
SIOUX LOOKOUT  MOSUNNY   50  27  40 NE7       30.24R
TORONTO        PTSUNNY   48  25  40 S3        30.10R
BIG TROUT LK   CLOUDY    43  23  45 N12G21    30.30R
PICKLE LAKE    PTSUNNY   43  25  49 N9        30.27R
DRYDEN         MOSUNNY   52  28  40 NE7       30.22R
KENORA         MOSUNNY   55  27  33 N9        30.20S
$$
                *** MANITOBA***

CITY           SKY/WX    TMP DP  RH WIND       PRES   REMARKS
BRANDON        MOSUNNY   59  18  20 E20       30.21R
DAUPHIN        SUNNY     61  23  23 E12       30.24R
ISLAND LAKE    PTSUNNY   50  19  29 VRB3      30.32S
PILOT MOUND      N/A     59  21  23 NE10G17     N/A
THE PAS        CLOUDY    61  23  23 SE16G22   30.26S
THOMPSON       PTSUNNY   61  23  23 VRB9      30.24F
WINNIPEG       PTSUNNY   61  28  29 NE14      30.20F
LYNN LAKE      SUNNY     64  27  24 S12       30.19S
CHURCHILL      SUNNY     32  23  69 E13       30.44F WCI  22
GILLAM         MOSUNNY   48  23  37 E8        30.35S
$$
                ***SASKATCHEWAN***

CITY           SKY/WX    TMP DP  RH WIND       PRES   REMARKS
ESTEVAN        PTSUNNY   63  19  19 E16G23    30.14R
KINDERSLEY     MOSUNNY   61  25  25 S14G22    30.04R
LLOYDMINSTER   MOSUNNY   64  18  16 S22       30.03S
PRINCE ALBERT  PTSUNNY   64  21  19 S12       30.15S
REGINA         MOSUNNY   63  12  14 SE16G30   30.12S
YORKTON        SUNNY     63  19  19 E12G20    30.19S
N. BATTLEFORD  SUNNY     66  16  14 S16G22    30.09S
LA RONGE       MOSUNNY   66  23  19 E9        30.14F
SASKATOON      SUNNY     64  16  15 SE20G26   30.13S
SWIFT CURRENT  PTSUNNY   59  23  25 SE15G24   30.04S
$$
NOTE: THESE ARE AUTOMATED STATIONS WITH LIMITED QUALITY CONTROL
      "FAIR" INDICATES FEW OR NO CLOUDS BELOW 12,000 FEET WITH NO
      SIGNIFICANT WEATHER AND/OR OBSTRUCTIONS TO VISIBILITY.
      SKY/WX - SKY CONDITION AND SIGNIFICANT WEATHER.
      TMP - AIR TEMPERATURE.    DP   - DEWPOINT TEMPERATURE.
      RH  - RELATIVE HUMIDITY.  PRES - PRESSURE.
      HX  - HEAT INDEX.         WCI  - WIND CHILL INDEX.
$



USA.gov is the U.S. government's official web portal to all federal, state and local government web resources and services.